{"data":{"norad_id":65322,"epoch":"2026-05-25T03:50:03.905088Z","epoch_age_seconds":55031,"freshness":"FRESH","line1":"1 65322U 25188H   26145.15976742  .00001341  00000+0  13528-3 0  9991","line2":"2 65322  97.7371 220.7859 0011733 194.5739 165.5144 14.92702683 40473","mean_motion":14.92702683,"eccentricity":0.0011733,"inclination_deg":97.7371,"raan_deg":220.7859,"arg_perigee_deg":194.5739,"mean_anomaly_deg":165.5144,"bstar":0.00013528,"rev_number":4047,"period_min":96.469311430855,"perigee_km":581.33740813215,"apogee_km":597.68769456935,"semimajor_km":6967.6495513507,"source":"CELESTRAK","updated_at":"2026-05-25T13:38:05.326062Z"}}